GW1476 Weather Reports


Display with metric or nautical units.
time (UTC)temp
F
wind
direction
speed
MPH
gust
MPH
rain 1hr
in
rain 24hr
in
rain mn
in
humidity
%
barometer
mb
20260502232429 54 0 2.0 2.0 0.00 0.00 0.00 54 1017.6
20260502231840 54 90 3.0 6.0 0.00 0.00 0.00 53 1017.6
20260502231212 55 23 2.0 2.0 0.00 0.00 0.00 53 1017.6
20260502230630 55 68 5.0 5.0 0.00 0.00 0.00 53 1017.6
20260502230040 56 0 3.0 4.0 0.00 0.00 0.00 52 1017.2
20260502225434 56 293 2.0 4.0 0.00 0.00 0.00 52 1017.6
20260502224832 56 0 3.0 3.0 0.00 0.00 0.00 50 1017.6
20260502224227 56 270 2.0 4.0 0.00 0.00 0.00 52 1017.6
20260502223035 57 180 0.0 3.0 0.00 0.00 0.00 51 1017.6
20260502222421 57 23 2.0 4.0 0.00 0.00 0.00 50 1017.6
20260502221839 56 45 3.0 3.0 0.00 0.00 0.00 51 1017.6
20260502221254 56 23 4.0 4.0 0.00 0.00 0.00 51 1017.6
20260502220621 57 45 4.0 5.0 0.00 0.00 0.00 50 1017.6
20260502220030 56 293 2.0 5.0 0.00 0.00 0.00 51 1017.2
20260502215411 56 45 4.0 9.0 0.00 0.00 0.00 50 1017.2
20260502214823 56 203 4.0 7.0 0.00 0.00 0.00 50 1017.2
20260502213651 56 23 5.0 9.0 0.00 0.00 0.00 50 1017.2
20260502213041 56 0 3.0 8.0 0.00 0.00 0.00 50 1017.2
20260502212448 57 23 3.0 5.0 0.00 0.00 0.00 49 1017.2
20260502211814 57 338 2.0 4.0 0.00 0.00 0.00 48 1017.2
20260502211238 58 23 6.0 10.0 0.00 0.00 0.00 48 1017.2
20260502210627 57 23 7.0 8.0 0.00 0.00 0.00 49 1017.2
20260502210034 57 45 4.0 8.0 0.00 0.00 0.00 49 1017.2
20260502205414 56 45 4.0 5.0 0.00 0.00 0.00 50 1017.2
20260502204235 56 45 2.0 2.0 0.00 0.00 0.00 49 1017.2
20260502203612 56 0 4.0 8.0 0.00 0.00 0.00 49 1017.2
20260502203052 57 23 5.0 8.0 0.00 0.00 0.00 47 1017.2
20260502202443 57 23 10.0 12.0 0.00 0.00 0.00 47 1017.6
20260502201845 58 68 6.0 8.0 0.00 0.00 0.00 48 1017.2
20260502201211 58 338 2.0 2.0 0.00 0.00 0.00 46 1017.2
20260502200650 57 23 6.0 8.0 0.00 0.00 0.00 47 1017.6
20260502200039 58 23 3.0 8.0 0.00 0.00 0.00 47 1017.6
20260502195414 56 23 4.0 5.0 0.00 0.00 0.00 48 1017.6
20260502194838 57 23 8.0 9.0 0.00 0.00 0.00 49 1017.6
20260502194249 56 0 7.0 7.0 0.00 0.00 0.00 49 1017.6
20260502193634 56 338 6.0 8.0 0.00 0.00 0.00 48 1017.9
20260502193038 56 90 3.0 6.0 0.00 0.00 0.00 49 1017.9
20260502192426 57 23 6.0 11.0 0.00 0.00 0.00 48 1017.9
20260502191852 57 338 7.0 7.0 0.00 0.00 0.00 48 1017.9
20260502190615 56 45 10.0 10.0 0.00 0.00 0.00 48 1017.9
20260502190018 57 23 8.0 8.0 0.00 0.00 0.00 48 1017.9
20260502185438 56 315 4.0 5.0 0.00 0.00 0.00 48 1018.2
20260502184255 56 23 5.0 7.0 0.00 0.00 0.00 49 1018.2
20260502183654 55 338 3.0 14.0 0.00 0.00 0.00 49 1018.2
20260502183016 55 338 3.0 14.0 0.00 0.00 0.00 49 1018.2
20260502182440 57 23 12.0 12.0 0.00 0.00 0.00 48 1018.2
20260502181834 57 180 1.0 3.0 0.00 0.00 0.00 50 1018.2
20260502181254 58 293 1.0 1.0 0.00 0.00 0.00 49 1018.2
20260502180621 60 0 10.0 10.0 0.00 0.00 0.00 46 1018.2
20260502164244 58 0 4.0 4.0 0.00 0.00 0.00 50 1018.2
20260502163631 60 23 5.0 5.0 0.00 0.00 0.00 52 1018.6
20260502163054 59 270 4.0 8.0 0.00 0.00 0.00 51 1018.9
20260502162442 57 23 2.0 4.0 0.00 0.00 0.00 54 1018.9
20260502161816 56 293 2.0 3.0 0.00 0.00 0.00 54 1018.9
20260502161221 56 23 4.0 4.0 0.00 0.00 0.00 54 1018.9
20260502160623 56 0 6.0 7.0 0.00 0.00 0.00 55 1018.9
20260502151833 57 248 2.0 4.0 0.00 0.00 0.00 59 1019.3
20260502151241 55 180 2.0 2.0 0.00 0.00 0.00 62 1019.3
20260502150650 56 203 1.0 4.0 0.00 0.00 0.00 60 1019.3
20260502130631 48 203 0.0 3.0 0.00 0.00 0.00 88 1019.3
20260502123636 44 0 1.0 1.0 0.00 0.00 0.00 98 1019.3
20260502122440 42 158 0.0 0.0 0.00 0.00 0.00 99 1019.3
20260502121222 42 158 0.0 0.0 0.00 0.00 0.00 99 1019.3
20260502120644 41 225 0.0 2.0 0.00 0.00 0.00 99 1019.3
20260502115451 41 180 0.0 0.0 0.00 0.00 0.00 99 1019.3
20260502114813 39 225 0.0 0.0 0.00 0.00 0.00 99 1019.3
20260502114232 38 225 0.0 0.0 0.00 0.00 0.00 99 1019.3
20260502113611 38 270 0.0 0.0 0.00 0.00 0.00 99 1019.3
20260502113039 37 225 0.0 0.0 0.00 0.00 0.00 99 1019.3
20260502112437 37 270 0.0 0.0 0.00 0.00 0.00 99 1018.9
20260502111828 37 248 0.0 0.0 0.00 0.00 0.00 99 1018.9
20260502111226 37 203 0.0 0.0 0.00 0.00 0.00 99 1018.9
20260502110017 36 203 0.0 0.0 0.00 0.00 0.00 99 1018.6
20260502105418 36 203 0.0 0.0 0.00 0.00 0.00 99 1018.6
20260502104829 36 225 0.0 0.0 0.00 0.00 0.00 99 1018.9
20260502104217 36 203 0.0 0.0 0.00 0.00 0.00 99 1018.6
20260502103635 36 225 0.0 0.0 0.00 0.00 0.00 99 1018.9
20260502103043 36 225 0.0 0.0 0.00 0.00 0.00 99 1018.6
20260502102419 36 203 0.0 0.0 0.00 0.00 0.00 99 1018.9
20260502101847 36 203 0.0 0.0 0.00 0.00 0.00 99 1018.9
20260502100631 36 180 0.0 0.0 0.00 0.00 0.00 99 1019.3
20260502091252 37 180 0.0 0.0 0.00 0.00 0.00 99 1019.3
20260502090624 37 180 0.0 0.0 0.00 0.00 0.00 99 1019.3
20260502071224 40 225 0.0 0.0 0.00 0.00 0.00 99 1018.9
20260502070652 40 203 0.0 1.0 0.00 0.00 0.00 99 1018.9
20260502070035 40 180 0.0 0.0 0.00 0.00 0.00 99 1018.9
20260502063651 41 270 0.0 0.0 0.00 0.00 0.00 99 1018.9
20260502063042 41 203 2.0 2.0 0.00 0.00 0.00 99 1018.9
20260502061814 42 180 0.0 0.0 0.00 0.00 0.00 98 1018.9
20260502061249 42 203 0.0 0.0 0.00 0.00 0.00 97 1018.9
20260502060622 42 180 0.0 1.0 0.00 0.00 0.00 97 1019.3
20260502060047 43 180 0.0 0.0 0.00 0.00 0.00 97 1019.3
20260502055448 43 203 0.0 0.0 0.00 0.00 0.00 95 1019.3
20260502054820 43 203 0.0 1.0 0.00 0.00 0.00 93 1019.3
20260502054251 44 203 1.0 2.0 0.00 0.00 0.00 93 1019.3
20260502053021 44 180 0.0 0.0 0.00 0.00 0.00 90 1019.3
20260502052415 45 203 0.0 0.0 0.00 0.00 0.00 88 1019.3
20260502051826 45 203 0.0 0.0 0.00 0.00 0.00 87 1019.3
20260502051220 46 203 0.0 0.0 0.00 0.00 0.00 86 1019.3
20260502050628 46 180 0.0 0.0 0.00 0.00 0.00 85 1019.3
20260502050039 46 248 0.0 0.0 0.00 0.00 0.00 81 1019.3
20260502045433 47 270 0.0 0.0 0.00 0.00 0.00 82 1019.3
20260502044838 47 293 0.0 0.0 0.00 0.00 0.00 79 1019.3
20260502043629 48 0 1.0 1.0 0.00 0.00 0.00 78 1019.3
20260502043043 49 225 0.0 0.0 0.00 0.00 0.00 76 1019.3
20260502042435 49 225 0.0 0.0 0.00 0.00 0.00 75 1019.3
20260502041810 49 23 0.0 0.0 0.00 0.00 0.00 74 1019.3
20260502041217 49 338 1.0 1.0 0.00 0.00 0.00 73 1019.3
20260502040649 50 45 0.0 1.0 0.00 0.00 0.00 73 1019.3
20260502040019 50 338 2.0 3.0 0.00 0.00 0.00 72 1019.3
20260502035442 50 23 3.0 3.0 0.00 0.00 0.00 72 1019.3
20260502034810 50 338 1.0 2.0 0.00 0.00 0.00 71 1019.3
20260502034246 50 338 1.0 2.0 0.00 0.00 0.00 70 1019.3
20260502033649 50 23 2.0 4.0 0.00 0.00 0.00 69 1019.3
20260502033012 50 23 3.0 4.0 0.00 0.00 0.00 69 1019.3
20260502032426 50 23 4.0 4.0 0.00 0.00 0.00 70 1019.3
20260502031841 51 45 3.0 3.0 0.00 0.00 0.00 71 1019.3
20260502031213 51 23 2.0 2.0 0.00 0.00 0.00 70 1019.6
20260502030616 51 158 1.0 5.0 0.00 0.00 0.00 70 1019.6
20260502030046 51 45 6.0 6.0 0.00 0.00 0.00 70 1019.6
20260502025414 51 0 4.0 6.0 0.00 0.00 0.00 71 1019.6
20260502024827 51 0 6.0 7.0 0.00 0.00 0.00 71 1019.6
20260502024219 52 338 2.0 2.0 0.00 0.00 0.00 71 1019.3
20260502023624 52 248 1.0 9.0 0.00 0.00 0.00 70 1019.3
20260502023047 52 0 6.0 9.0 0.00 0.00 0.00 71 1019.3
20260502022427 52 23 5.0 7.0 0.00 0.00 0.00 71 1019.3
20260502021812 52 0 6.0 8.0 0.00 0.00 0.00 71 1019.3
20260502021234 52 23 5.0 6.0 0.00 0.00 0.00 71 1018.9
20260502020614 53 338 4.0 10.0 0.00 0.00 0.00 72 1018.6
20260502020036 53 0 5.0 7.0 0.00 0.00 0.00 72 1018.6
20260502015431 53 68 7.0 8.0 0.00 0.00 0.00 73 1018.6
20260502014842 53 23 5.0 7.0 0.00 0.00 0.00 74 1017.9
20260502014227 54 0 3.0 3.0 0.00 0.00 0.00 74 1017.9
20260502013620 54 23 5.0 7.0 0.00 0.00 0.00 74 1017.6
20260502013036 54 23 4.0 11.0 0.00 0.00 0.00 75 1017.6
20260502012450 54 23 4.0 5.0 0.00 0.00 0.00 75 1017.6
20260502011841 54 23 6.0 8.0 0.00 0.00 0.00 74 1017.2
20260502011224 54 23 3.0 3.0 0.00 0.00 0.00 76 1017.2
20260502010625 54 0 0.0 3.0 0.00 0.00 0.00 77 1017.2
20260502010053 54 338 2.0 3.0 0.00 0.00 0.00 75 1016.9
20260502005446 54 0 0.0 1.0 0.00 0.00 0.00 76 1016.9
20260502004843 55 23 0.0 0.0 0.00 0.00 0.00 75 1016.9
20260502004227 55 23 0.0 0.0 0.00 0.00 0.00 74 1016.9
20260502003649 55 293 0.0 0.0 0.00 0.00 0.00 73 1016.5
20260502002449 55 338 2.0 2.0 0.00 0.00 0.00 72 1016.5
20260502001832 55 338 2.0 3.0 0.00 0.00 0.00 71 1016.5
20260502001246 55 0 2.0 2.0 0.00 0.00 0.00 71 1016.5
20260502000031 56 45 3.0 6.0 0.00 0.00 0.00 70 1016.2
20260501235453 56 0 3.0 6.0 0.00 0.00 0.00 70 1016.2
20260501234840 56 45 4.0 5.0 0.00 0.00 0.00 70 1016.2
20260501234253 56 338 4.0 4.0 0.00 0.00 0.00 70 1015.9
20260501233644 56 23 2.0 4.0 0.00 0.00 0.00 70 1015.5